Location: Arbon
(43.0005°N, 0.7472°E)
Time: 07:31:53
(UTC+00:00)

Vanguard 1 - Pass Details

Date: 04 December 2020
Orbit: 648 x 3834 km, 34.3° (Epoch: 21 January)

Event Time Altitude Azimuth Distance (km) Brightness Sun altitude
Rises 07:58:59 0° 268° (W) 3,932 12.7 6.2°
Reaches altitude 10° 08:01:27 10° 259° (WSW) 3,258 12.4 6.6°
Maximum altitude 08:08:59 36° 195° (SSW) 2,610 12.6 7.6°
Drops below altitude 10° 08:21:47 10° 137° (SE) 5,529 17.4 9.4°
Sets 08:27:35 0° 130° (SE) 7,042 16.7 10.2°
